Last 24 Hours

Pinyon

10 Minute Data | America/Los_Angeles
as of 5/2/26 7:31 AM PDT
Date & Time Temp (°F) Dew Pt (°F) RH (%) Wind Spd (mph) Wind Dir (°) Wind Gust (mph) Wind Gst Dir (°) Daily Max Temp (°F) Daily Min Temp (°F)
5/2/26 - 0730 67.8 21.0 17 4.5 SW | 218 8.6 SW | 230 68.2 63.6
5/2/26 - 0720 67.3 21.6 17 3.6 SW | 216 7.8 SW | 214 68.2 63.6
5/2/26 - 0710 66.9 22.5 18 3.4 SW | 217 6.9 SW | 216 68.2 63.6
5/2/26 - 0700 66.4 25.4 21 2.1 WSW | 237 4.3 SSW | 212 68.2 63.6
5/2/26 - 0650 65.8 25.1 21 2.4 WSW | 250 3.4 WSW | 237 68.2 63.6
5/2/26 - 0640 64.9 24.5 21 2.4 W | 275 3.1 W | 271 68.2 63.6
5/2/26 - 0630 64.6 25.8 23 2.7 WNW | 290 3.7 WNW | 282 68.2 63.6
5/2/26 - 0620 64.9 26.4 23 2.4 NW | 308 3.2 NW | 314 68.2 63.6
5/2/26 - 0610 64.6 27.2 24 2.4 WNW | 284 3.5 WNW | 287 68.2 63.6
5/2/26 - 0600 63.8 26.8 24 2.6 WNW | 300 3.3 WNW | 293 68.2 63.6
5/2/26 - 0550 64.2 28.4 26 2.7 NW | 318 3.5 NW | 317 68.2 64.0
5/2/26 - 0540 65.4 30.4 27 2.4 W | 274 3.1 WNW | 286 68.2 64.6
5/2/26 - 0530 65.6 29.7 26 2.7 SW | 235 3.1 SW | 234 68.2 65.3
5/2/26 - 0520 65.6 29.1 25 2.0 WSW | 257 2.6 WSW | 244 68.2 65.3
5/2/26 - 0510 65.6 28.8 25 1.3 W | 262 2.3 W | 259 68.2 65.3
5/2/26 - 0500 65.5 29.0 25 2.4 W | 261 3.4 WSW | 256 68.2 65.3
5/2/26 - 0450 65.6 30.1 26 2.6 SW | 229 3.3 SW | 233 68.2 65.4
5/2/26 - 0440 65.8 30.4 26 2.9 S | 174 4.6 SSE | 158 68.2 65.6
5/2/26 - 0430 65.8 28.8 25 2.9 SSW | 198 4.2 S | 189 68.2 65.6
5/2/26 - 0420 66.0 28.9 25 3.2 SW | 215 5.2 SW | 226 68.2 65.6
5/2/26 - 0410 65.9 28.7 25 3.6 SW | 218 5.9 SW | 220 68.2 65.6
5/2/26 - 0400 65.9 28.7 25 3.2 SW | 235 4.7 WSW | 245 68.2 65.8
5/2/26 - 0350 66.2 29.2 25 3.3 SW | 230 5.0 SW | 228 68.2 65.9
5/2/26 - 0340 66.1 29.1 25 3.2 SW | 227 4.2 SW | 223 68.2 66.0
5/2/26 - 0330 66.6 29.4 25 3.5 SSW | 213 4.9 SW | 223 68.2 66.2
5/2/26 - 0320 66.8 29.3 24 4.0 SSW | 209 5.4 SSW | 205 68.2 66.7
5/2/26 - 0310 67.0 29.2 24 3.3 SW | 218 5.3 SSW | 198 68.2 66.8
5/2/26 - 0300 67.2 28.7 23 3.1 SW | 216 4.6 SW | 224 68.2 66.8
5/2/26 - 0250 67.4 28.2 23 3.4 SW | 222 5.2 SW | 219 68.2 66.8
5/2/26 - 0240 67.0 27.9 23 2.2 SW | 220 3.7 SW | 221 68.2 66.8
5/2/26 - 0230 67.3 27.6 22 1.0 W | 268 2.0 W | 276 68.2 66.9
5/2/26 - 0220 67.6 27.6 22 1.0 WSW | 256 2.0 WSW | 254 68.2 67.3
5/2/26 - 0210 67.8 27.8 22 0.1 WSW | 249 1.1 WSW | 254 68.2 67.3
5/2/26 - 0200 67.9 27.4 22 1.4 W | 280 2.1 W | 271 68.2 67.3
5/2/26 - 0150 68.1 27.7 22 1.0 W | 259 1.9 W | 279 68.2 67.3
5/2/26 - 0140 68.1 26.8 21 2.2 W | 273 2.9 W | 278 68.2 67.3
5/2/26 - 0130 67.8 27.0 22 2.1 WSW | 257 3.2 W | 259 68.0 67.3
5/2/26 - 0120 67.5 28.6 23 2.6 WNW | 282 3.4 W | 279 68.0 67.3
5/2/26 - 0110 67.8 30.1 24 2.1 NW | 321 2.7 WNW | 298 68.0 67.3
5/2/26 - 0100 66.9 30.0 25 1.1 NNW | 342 1.8 NNW | 341 75.9 61.5
5/2/26 - 0050 66.6 30.1 25 0.3 NNW | 347 1.0 NNW | 347 75.9 61.5
5/2/26 - 0040 66.8 30.8 26 1.8 NNW | 346 2.6 N | 352 75.9 61.5
5/2/26 - 0030 67.0 31.2 26 2.0 N | 354 2.4 NNW | 348 75.9 61.5
5/2/26 - 0020 67.0 31.9 27 2.1 N | 8 2.6 NNW | 344 75.9 61.5
5/2/26 - 0010 67.3 32.2 27 1.8 N | 1 2.5 NNE | 21 75.9 61.5
5/2/26 - 0000 67.3 32.2 27 1.9 WNW | 301 2.5 WNW | 292 75.9 61.5
5/1/26 - 2350 67.1 31.8 27 1.9 NW | 313 2.6 NW | 320 75.9 61.5
5/1/26 - 2340 67.4 30.9 25 2.2 NNW | 329 3.0 NNW | 335 75.9 61.5
5/1/26 - 2330 66.9 30.0 25 2.4 N | 357 2.9 NNW | 346 75.9 61.5
5/1/26 - 2320 66.7 29.8 25 3.1 NNE | 25 4.4 NE | 35 75.9 61.5
5/1/26 - 2310 66.2 29.6 25 3.6 NE | 35 4.5 NE | 38 75.9 61.5
5/1/26 - 2300 66.1 29.3 25 3.7 NNE | 22 4.8 NNE | 20 75.9 61.5
5/1/26 - 2250 66.0 28.9 25 4.0 N | 355 6.0 NNW | 330 75.9 61.5
5/1/26 - 2240 66.0 28.6 24 5.2 NNW | 347 6.5 NNW | 340 75.9 61.5
5/1/26 - 2230 65.7 28.8 25 5.7 NNW | 328 7.6 NW | 324 75.9 61.5
5/1/26 - 2220 65.5 30.0 26 5.5 NW | 323 7.0 NW | 326 75.9 61.5
5/1/26 - 2210 65.3 31.6 28 5.9 NNW | 328 8.7 NNW | 337 75.9 61.5
5/1/26 - 2200 65.0 33.7 31 6.4 NW | 326 8.3 NW | 326 75.9 61.5
5/1/26 - 2150 64.9 35.1 33 6.6 NNW | 328 9.3 NNW | 338 75.9 61.5
5/1/26 - 2140 65.0 34.7 32 6.8 NW | 326 9.4 NW | 314 75.9 61.5
5/1/26 - 2130 65.3 33.9 31 7.5 NNW | 328 10.7 NW | 323 75.9 61.5
5/1/26 - 2120 65.4 34.4 32 8.1 NNW | 333 11.2 NNW | 328 75.9 61.5
5/1/26 - 2110 65.2 35.8 34 7.7 NNW | 329 11.6 NNW | 347 75.9 61.5
5/1/26 - 2100 65.4 36.5 34 7.0 NNW | 328 11.3 NW | 320 75.9 61.5
5/1/26 - 2050 65.2 37.6 36 9.1 NW | 323 13.9 NW | 319 75.9 61.5
5/1/26 - 2040 65.0 38.4 37 8.4 NW | 326 14.8 N | 350 75.9 61.5
5/1/26 - 2030 65.3 38.0 37 9.8 NW | 326 15.4 NNW | 331 75.9 61.5
5/1/26 - 2020 65.5 36.9 35 10.3 NW | 323 16.7 NW | 319 75.9 61.5
5/1/26 - 2010 65.7 37.5 35 8.9 NW | 320 13.9 NW | 325 75.9 61.5
5/1/26 - 2000 66.0 38.3 36 9.2 NW | 325 15.3 NW | 320 75.9 61.5
5/1/26 - 1950 66.6 38.6 36 10.1 NNW | 327 15.3 NNW | 331 75.9 61.5
5/1/26 - 1940 67.1 39.0 36 8.6 NW | 323 13.3 NNW | 329 75.9 61.5
5/1/26 - 1930 67.9 39.4 35 9.0 NW | 322 15.7 NW | 319 75.9 61.5
5/1/26 - 1920 68.8 39.7 34 8.4 NW | 321 14.8 NW | 319 75.9 61.5
5/1/26 - 1910 69.7 39.5 33 7.9 NW | 325 12.2 NNW | 335 75.9 61.5
5/1/26 - 1900 70.5 39.3 32 8.8 NNW | 340 13.4 N | 0 75.9 61.5
5/1/26 - 1850 71.6 38.1 29 8.2 N | 355 14.1 W | 266 75.9 61.5
5/1/26 - 1840 73.0 34.4 24 3.2 NE | 53 7.7 NE | 41 75.9 61.5
5/1/26 - 1830 73.3 31.3 21 2.4 SSE | 147 7.0 SSE | 154 75.9 61.5
5/1/26 - 1820 73.7 31.2 21 5.0 S | 182 8.8 S | 169 75.9 61.5
5/1/26 - 1810 74.3 31.3 21 1.9 SSE | 161 5.4 S | 182 75.9 61.5
5/1/26 - 1800 73.8 31.8 21 2.4 E | 101 5.8 ESE | 121 75.9 61.5
5/1/26 - 1750 74.1 31.9 21 5.3 SE | 133 9.6 ESE | 112 75.9 61.5
5/1/26 - 1740 74.1 32.0 21 3.3 SE | 124 8.0 S | 182 75.9 61.5
5/1/26 - 1730 74.3 32.0 21 3.4 SE | 134 7.3 SSE | 159 75.9 61.5
5/1/26 - 1720 74.4 32.2 21 5.2 ESE | 118 9.1 S | 180 75.9 61.5
5/1/26 - 1710 73.8 31.8 21 4.1 SE | 139 9.1 ESE | 119 75.9 61.5
5/1/26 - 1700 73.3 31.8 22 4.6 SSE | 155 8.3 SSE | 151 75.9 61.5
5/1/26 - 1650 73.3 31.7 22 5.9 SSE | 163 12.2 SSE | 164 75.9 61.5
5/1/26 - 1640 73.6 31.7 21 5.8 S | 169 11.5 S | 175 75.9 61.5
5/1/26 - 1630 74.6 31.5 20 6.3 SE | 129 12.0 SE | 129 75.9 61.5
5/1/26 - 1620 74.4 31.2 20 5.3 SSW | 203 17.8 E | 88 75.9 61.5
5/1/26 - 1610 74.7 31.2 20 5.2 SE | 132 11.7 SSE | 149 75.9 61.5
5/1/26 - 1600 74.0 31.0 20 4.2 ESE | 102 11.0 E | 96 75.9 61.5
5/1/26 - 1550 74.6 31.3 20 6.4 ESE | 107 11.2 ESE | 118 75.9 61.5
5/1/26 - 1540 73.9 31.4 21 4.2 SE | 128 8.9 SSE | 161 75.9 61.5
5/1/26 - 1530 74.1 31.4 21 6.1 ESE | 114 10.7 ESE | 106 75.9 61.5
5/1/26 - 1520 74.0 31.8 21 7.6 SSE | 149 16.2 SE | 138 75.9 61.5
5/1/26 - 1510 72.8 31.4 22 5.9 S | 172 14.2 SSW | 200 75.9 61.5
5/1/26 - 1500 72.8 30.5 21 7.4 SSE | 162 14.3 SSE | 149 75.9 61.5
5/1/26 - 1450 72.8 30.5 21 7.8 SE | 140 15.0 SE | 135 75.9 61.5
5/1/26 - 1440 73.9 30.7 20 8.6 SSE | 155 14.0 SSE | 166 75.9 61.5
5/1/26 - 1430 74.4 30.6 20 10.8 SE | 146 19.4 SSE | 156 75.9 61.5
5/1/26 - 1420 75.2 30.7 19 9.2 SE | 145 18.6 SSE | 166 75.9 61.5
5/1/26 - 1410 74.1 30.0 20 6.8 ESE | 106 13.7 ESE | 109 75.0 61.5
5/1/26 - 1400 73.9 29.8 20 11.9 SE | 127 20.0 SE | 138 75.0 61.5
5/1/26 - 1350 73.7 28.7 19 9.1 SE | 136 20.2 SE | 141 75.0 61.5
5/1/26 - 1340 74.0 28.6 19 11.2 SE | 126 17.0 SE | 146 75.0 61.5
5/1/26 - 1330 73.9 28.5 19 10.7 SE | 136 20.7 SE | 146 74.8 61.5
5/1/26 - 1320 73.6 27.5 18 8.8 SE | 127 14.4 ESE | 114 74.4 61.5
5/1/26 - 1310 73.2 27.7 18 8.4 SE | 139 15.1 ESE | 107 74.4 61.5
5/1/26 - 1300 73.3 28.4 19 8.9 SE | 135 15.7 SE | 138 74.4 61.5
5/1/26 - 1250 72.9 26.5 18 5.9 ESE | 123 14.2 SE | 139 74.4 61.5
5/1/26 - 1240 73.6 26.7 17 10.1 ESE | 120 18.4 ESE | 122 74.4 61.5
5/1/26 - 1230 72.8 25.6 17 7.6 SE | 130 15.6 ESE | 120 73.7 61.5
5/1/26 - 1220 72.1 26.3 18 6.8 SE | 146 14.7 SSE | 147 73.2 61.5
5/1/26 - 1210 72.3 26.8 18 7.4 ESE | 120 15.2 ESE | 114 73.2 61.5
5/1/26 - 1200 72.5 27.7 19 8.8 SSE | 158 15.1 SE | 136 73.2 61.5
5/1/26 - 1150 71.7 28.0 20 8.6 SE | 140 14.8 SE | 139 73.2 61.5
5/1/26 - 1140 72.0 27.8 19 10.7 ESE | 106 17.8 ESE | 118 73.2 61.5
5/1/26 - 1130 72.2 27.2 19 8.1 ESE | 108 14.1 ESE | 103 73.1 61.5
5/1/26 - 1120 71.8 26.6 18 10.7 SE | 133 18.4 SE | 138 72.5 61.5
5/1/26 - 1110 71.8 26.9 19 8.8 ESE | 119 13.7 ESE | 108 72.5 61.5
5/1/26 - 1100 71.6 26.8 19 11.3 SE | 134 19.6 SE | 128 72.2 61.5
5/1/26 - 1050 71.5 28.0 20 10.7 SE | 131 16.5 SE | 144 72.2 61.5
5/1/26 - 1040 71.2 28.1 20 9.8 SE | 134 17.8 ESE | 118 72.2 61.5
5/1/26 - 1030 71.4 27.8 20 9.2 SE | 141 15.5 SSE | 151 72.2 61.5
5/1/26 - 1020 71.4 28.1 20 7.0 SE | 142 13.2 SE | 127 72.1 61.5
5/1/26 - 1010 71.1 28.0 20 7.0 SE | 125 13.5 SE | 131 72.0 61.5
5/1/26 - 1000 71.2 27.9 20 7.5 SE | 127 11.7 SE | 133 72.0 61.5
5/1/26 - 0950 70.8 27.4 20 7.5 SE | 126 12.4 SE | 137 71.2 61.5
5/1/26 - 0940 70.6 27.2 20 5.9 E | 93 12.4 ESE | 120 71.2 61.5
5/1/26 - 0930 70.3 26.9 20 7.4 E | 88 12.9 E | 90 70.8 61.5
5/1/26 - 0920 70.5 27.4 20 6.8 ESE | 112 10.9 ENE | 69 70.8 61.5
5/1/26 - 0910 70.3 27.0 20 5.1 SSE | 156 9.6 SE | 139 70.6 61.5
5/1/26 - 0900 69.7 26.3 20 3.3 ENE | 60 7.1 NE | 42 70.5 61.5
5/1/26 - 0850 69.7 26.3 20 3.0 SSE | 162 6.7 SE | 129 70.5 61.5
5/1/26 - 0840 69.2 25.8 19 3.9 NNE | 19 7.4 ENE | 68 69.7 61.5
5/1/26 - 0830 69.3 26.1 20 3.4 SE | 131 6.4 ENE | 72 69.7 61.5
5/1/26 - 0820 69.2 26.4 20 5.0 SSE | 158 10.2 SSE | 155 69.7 61.5
5/1/26 - 0810 69.2 25.9 20 3.4 SSE | 150 7.8 SE | 137 69.7 61.5
5/1/26 - 0800 69.2 25.8 19 3.4 S | 183 6.6 SSE | 167 69.7 61.5
5/1/26 - 0750 69.4 25.8 19 1.6 SSW | 196 4.1 SW | 218 69.7 61.5
5/1/26 - 0740 68.8 25.5 20 1.0 SW | 232 3.2 W | 264 69.0 61.5
5/1/26 - 0730 68.4 25.3 20 0.8 WSW | 246 3.1 WSW | 239 68.5 61.5
Max 75.2 39.7 37 11.9 - 20.7 - 75.9 67.3
Avg 69.3 29.9 23 5.3 - 9.2 - - -
Min 63.8 21.0 17 0.1 - 1.0 - 68.0 61.5